Location: Alafon
(8.4500°N, 4.2333°E)
Time: 18:08:11
(UTC+00:00)

A-11 Canister half - Pass Details

Date: 15 August 2021
Orbit: 1515 x 1685 km, 47.2° (Epoch: 19 September)

Event Time Altitude Azimuth Distance (km) Brightness Sun altitude
Rises 19:54:49 0° 330° (NNW) 4,886 12.3 -28.1°
Reaches altitude 10° 19:58:12 10° 337° (NNW) 3,915 11.6 -28.9°
Maximum altitude 20:07:39 44° 47° (NE) 2,193 9.5 -31.1°
Enters shadow 20:08:30 43° 59° (ENE) 2,213 9.5 -31.3°
Drops below altitude 10° 20:17:08 10° 116° (ESE) 3,935 - -33.3°
Sets 20:20:30 0° 122° (ESE) 4,914 - -34.0°
